This is the latest recevied weather packets stored in our database for station/object AD4CG. If no packets are shown the sender has not sent any weather packets the latest 10 day(s).
| Time | Temp. | Humidity | Pressure | Rain* | Wind** | Luminosity | Snow |
|---|---|---|---|---|---|---|---|
| 1777296326 | 12.78° C | 57% | 1024 hPa | 0 mm | - | - | - |
| 1777295383 | 12.22° C | 63% | 1024 hPa | 0 mm | - | - | - |
| 1777286916 | 11.11° C | 74% | 1022.7 hPa | 0 mm | - | - | - |
| 1777283474 | 11.11° C | 88% | 1022 hPa | 0 mm | - | - | - |
| 1777283160 | 11.11° C | 87% | 1021.7 hPa | 0 mm | - | - | - |
| 1777282847 | 11.11° C | 88% | 1021.3 hPa | 0 mm | - | - | - |
| 1777277159 | 11.11° C | 84% | 1021.3 hPa | 0 mm | - | - | - |
| 1777275560 | 11.11° C | 85% | 1021.3 hPa | 0 mm | - | - | - |
| 1777274912 | 11.11° C | 85% | 1021.3 hPa | 0 mm | - | - | - |
| 1777274598 | 11.11° C | 86% | 1021.3 hPa | 0 mm | - | - | - |
| 1777272720 | 11.11° C | 86% | 1021.3 hPa | 0 mm | - | - | - |
| 1777271781 | 11.11° C | 85% | 1021.3 hPa | 0 mm | - | - | - |
| 1777270529 | 11.11° C | 85% | 1021.3 hPa | 0 mm | - | - | - |
| 1777270217 | 11.11° C | 85% | 1021.3 hPa | 0 mm | - | - | - |
| 1777269276 | 11.11° C | 82% | 1021.3 hPa | 0 mm | - | - | - |
| 1777267079 | 11.11° C | 83% | 1021.3 hPa | 0 mm | - | - | - |
| 1777266759 | 11.11° C | 82% | 1021.3 hPa | 0 mm | - | - | - |
| 1777265796 | 11.11° C | 81% | 1021.3 hPa | 0 mm | - | - | - |
| 1777264188 | 11.67° C | 100% | 1021.3 hPa | 0 mm | - | - | - |
| 1777262604 | 11.67° C | 80% | 1021.3 hPa | 0 mm | - | - | - |
| 1777259746 | 11.67° C | 82% | 1020.7 hPa | 0 mm | - | - | - |
| 1777259115 | 11.67° C | 82% | 1020.7 hPa | 0 mm | - | - | - |
| 1777258489 | 11.67° C | 82% | 1020.7 hPa | 0 mm | - | - | - |
| 1777258175 | 11.67° C | 81% | 1020.7 hPa | 0 mm | - | - | - |
| 1777256924 | 12.22° C | 80% | 1020.3 hPa | 0 mm | - | - | - |
* Rain latest hour (hover to see other rain measurements)
** Current wind speed in m/s (hover to see current wind gust speed)